Regional Weather Roundup
Issued by NWS

Home | Current Version | Previous Version | Graphics & Text | Print | Product List | Glossary Off
Versions: 1 2 3 4 5 6 7 8 9 10 11 12 13 14 15 16 17 18 19 20 21 22 23 24 25 26 27 28 29 30 31 32 33 34 35 36 37 38 39 40 41 42 43 44 45 46 47 48 49 50

000
ASUS43 KMKX 210110
RWRWI

WISCONSIN REGIONAL WEATHER ROUNDUP
NATIONAL WEATHER SERVICE MILWAUKEE/SULLIVAN WI
800 PM CDT FRI APR 20 2018

NOTE: "FAIR" INDICATES FEW OR NO CLOUDS BELOW 12,000 FEET WITH NO
SIGNIFICANT WEATHER AND/OR OBSTRUCTIONS TO VISIBILITY.

WIZ001-002-006>008-014>016-023>028-210200-
NORTHWEST WISCONSIN

CITY           SKY/WX    TMP DP  RH WIND       PRES   REMARKS
SUPERIOR ARPT  FAIR      52  23  31 SW5       30.39R
ASHLAND        FAIR      42  23  46 CALM      30.40R
HAYWARD        FAIR      49  22  34 SW3       30.40S
SIREN          FAIR      45  18  34 CALM      30.42S
CUMBERLAND     FAIR      43  10  26 CALM      30.42R
RICE LAKE      FAIR      46  15  29 W3        30.44R
CHETEK         FAIR      44  23  44 CALM      30.43R
LADYSMITH      FAIR      47  18  32 CALM      30.43R
EAU CLAIRE     FAIR      47  19  33 CALM      30.42R
MENOMONIE      FAIR      47  24  40 SW6       30.43R
NEW RICHMOND   FAIR      44  26  47 SW3       30.43S
OSCEOLA        FAIR      47  22  37 CALM      30.45S
$$

WIZ003>005-009-010-017-018-210200-
NORTH CENTRAL WISCONSIN

CITY           SKY/WX    TMP DP  RH WIND       PRES   REMARKS
MANITOWISH WTR FAIR      49  13  24 SW5       30.38R
ARBOR VITAE    FAIR      51  13  22 W3        30.38R
WOODRUFF       FAIR      51  13  22 W3        30.38R
RHINELANDER    FAIR      47  19  33 SW8       30.39R
EAGLE RIVER    FAIR      46  10  22 CALM      30.37R
LAND O LAKES   FAIR      42  15  32 CALM      30.39R
PHILLIPS       FAIR      47  18  31 CALM      30.39R
TOMAHAWK       FAIR      46  13  27 CALM      30.40S
MEDFORD        FAIR      40  22  46 CALM      30.40S
MERRILL          N/A     46  17  32 CALM      30.41R
$$

WIZ029-030-035-036-043>047-210200-
CENTRAL WISCONSIN

CITY           SKY/WX    TMP DP  RH WIND       PRES   REMARKS
WAUSAU         FAIR      47  13  25 CALM      30.39S
MOSINEE        PTCLDY    46  14  27 CALM      30.42S
MARSHFIELD     FAIR      48  16  27 CALM      30.40R
STEVENS POINT  FAIR      45  17  33 CALM      30.42R
WAUPACA        FAIR      47  18  31 CALM      30.42S
WAUTOMA        FAIR      46  23  40 S5        30.42R
WISC RAPIDS    FAIR      45  16  31 CALM      30.42R
CAMP DOUGLAS   FAIR      37  25  60 CALM      30.42R HAZE
$$

WIZ011>013-019>022-031-037>040-048>050-210200-
NORTHEAST WISCONSIN

CITY           SKY/WX    TMP DP  RH WIND       PRES   REMARKS
ANTIGO         FAIR      42  18  38 W8        30.40S
SHAWANO        FAIR      51  16  25 CALM      30.41R
OCONTO         FAIR      47  14  27 CALM      30.41R
STURGEON BAY   FAIR      46  23  40 S5        30.43S
GREEN BAY      FAIR      47  22  37 SW5       30.42S
MANITOWOC      FAIR      41  27  57 E5        30.44R
APPLETON       PTCLDY    46  19  34 S5        30.41S
CLINTONVILLE   FAIR      45  17  33 SW6       30.41S
OSHKOSH        FAIR      43  22  43 S6        30.42F
$$

WIZ032>034-041-042-053>061-210200-
SOUTHWEST WISCONSIN

CITY           SKY/WX    TMP DP  RH WIND       PRES   REMARKS
LA CROSSE      FAIR      48  28  46 W5        30.42R
SPARTA         FAIR      43  23  44 CALM      30.44R
VIROQUA        FAIR      46  23  40 CALM      30.41S
BOSCOBEL       FAIR      48  31  51 CALM      30.42R
PRAIRIE DU CHI FAIR      51  31  47 NW6       30.41R
PLATTEVILLE    FAIR      54  28  37 CALM      30.41S
$$

WIZ056-057-062-063-064-067-068-210200-
SOUTH CENTRAL WISCONSIN

CITY           SKY/WX    TMP DP  RH WIND       PRES   REMARKS
REEDSBURG      FAIR      49  20  31 CALM      30.42R
BARABOO/DELLS  FAIR      45  16  31 CALM      30.42R
LONE ROCK      FAIR      50  27  40 CALM      30.41R
MINERAL POINT  FAIR      54  19  26 CALM      30.41R
MADISON        MOCLDY    45  25  45 N3        30.42R
MIDDLETON      FAIR      49  26  40 E3        30.43R
WATERTOWN      FAIR      44  25  46 CALM      30.42S
MONROE         FAIR      52  19  28 CALM      30.41R
JANESVILLE     CLOUDY    52  32  46 CALM      30.41R
$$

WIZ051-052-058>065-066-070>072-210200-
SOUTHEAST WISCONSIN

CITY           SKY/WX    TMP DP  RH WIND       PRES   REMARKS
MILWAUKEE      MOCLDY    45  18  34 SE5       30.44S
WAUKESHA       CLEAR     45  23  42 E8        30.43S
MILWAUKEE/TIMM CLEAR     46  10  23 CALM      30.45R
RACINE         FAIR      45  11  25 S5        30.45S
BURLINGTON     FAIR      45  25  44 E7        30.43R
KENOSHA        FAIR      45  14  28 SE6       30.43S
FOND DU LAC    FAIR      44  14  29 CALM      30.42F
SHEBOYGAN      FAIR      43  31  62 S6        30.43S
WEST BEND      FAIR      45  23  42 CALM      30.43S
JUNEAU         FAIR      46  15  28 CALM      30.44R
$$

LSZ147-162-210200-
LAKE SUPERIOR

STATION/POSITION TIME  TEMP    WIND        PRES    WAVE
                       AIR SEA DIR/SP/G            HT/PER
                 (UTC) (F)     (DEG/KT/KT) (MB)    (FT/S)
DEVILS ISLAND    0100   44      80/  4/  4 1029.6R
SAXON HARBOR     0030   40      CALM  /  1 1028.4R
$$

LMZ867-665-643>646-210200-
LAKE MICHIGAN

STATION/POSITION TIME  TEMP    WIND        PRES    WAVE
                       AIR SEA DIR/SP/G            HT/PER
                 (UTC) (F)     (DEG/KT/KT) (MB)    (FT/S)
NORTHPORT PIER   0040   45                 1029.5S
KEWAUNEE LAKESHO 0042   39     160/  2/  4 1029.4S
SHEBOYGAN LAKESH 0100   46     210/  5/  6 1030.8F
PORT WASHINGTON  0040   41     190/  3/  4 1031.5S
MILWAUKEE LAKESH 0050   40      90/  1/  1   N/A
KENOSHA   LAKESH 0100   42                 1030.5
$$

TC  - TEMPERATURE IN CELSIUS
VSB - VISIBILITY IN STATUTE MILES
WCI - WIND CHILL INDEX
HX  - HEAT INDEX




USA.gov is the U.S. government's official web portal to all federal, state and local government web resources and services.